Sanford, ME

5:57 AM EDT on September 18, 2019 (GMT -0400)
Sanford Regional

Weather History for KSFM - August, 2019

Change the Weather History Date:

Monday, August 19, 2019

  Actual Average Record
Temperature  
Mean Temperature 78 °F -  
Max Temperature 89 °F 76 °F 89 °F (2002)
Min Temperature 68 °F 52 °F 32 °F (1999)
Cooling Degree Days 14    
Growing Degree Days 28 (Base 50)    
Moisture  
Dew Point 69 °F    
Average Humidity 91    
Maximum Humidity 100    
Minimum Humidity 55    
Precipitation  
Precipitation 0.00 in - - ()
Sea Level Pressure  
Sea Level Pressure 29.95 in    
Wind  
Wind Speed 4 mph (WSW)    
Max Wind Speed 13 mph    
Max Gust Speed 18 mph    
Visibility 6 miles    
Events Fog , Rain , Thunderstorm    
Averages and records for this station are not official NWS values.
T = Trace of Precipitation, MM = Missing Value Source: NWS Daily Summary

Daily Weather History Graph

Daily Weather History Graph

Search for Another Location

Airport or City:

Astronomy

Aug. 19, 2019 Rise Set
Actual Time 5:52 AM EDT 7:40 PM EDT
Civil Twilight 5:21 AM EDT 8:10 PM EDT
Nautical Twilight 4:44 AM EDT 8:47 PM EDT
Astronomical Twilight 4:04 AM EDT 9:27 PM EDT
Moon 9:53 PM EDT (8/19) 9:35 AM EDT (8/19)
Length of Visible Light 14h 48m
Length of Day
13h 47m
Waning Gibbous, 85% of the Moon is Illuminated
Aug 19
Waning Gibbous
Aug 23
Last Quarter
Aug 30
New
Sep 5
First Quarter
Sep 14
Full

Hourly Weather History & Observations

Time (EDT) Temp. Heat Index Dew Point Humidity Pressure Visibility Wind Dir Wind Speed Gust Speed Precip Events Conditions
12:04 AM 68.0 °F - 68.0 °F 100% 29.98 in 1.5 mi East 6.9 mph - N/A Rain , Thunderstorm Light Thunderstorms and Rain
12:06 AM 68.0 °F - 68.0 °F 100% 29.98 in 4.0 mi East 6.9 mph - N/A Rain , Thunderstorm Light Thunderstorms and Rain
12:11 AM 68.0 °F - 68.0 °F 100% 29.97 in 10.0 mi East 4.6 mph - N/A Rain , Thunderstorm Light Thunderstorms and Rain
12:36 AM 68.0 °F - 68.0 °F 100% 29.98 in 10.0 mi Variable 3.5 mph - N/A Rain , Thunderstorm Light Thunderstorms and Rain
12:43 AM 69.8 °F - 68.0 °F 94% 29.98 in 10.0 mi North 3.5 mph - N/A Rain , Thunderstorm Light Rain
12:49 AM 69.8 °F - 68.0 °F 94% 29.97 in 10.0 mi ENE 4.6 mph - N/A Rain Light Rain
12:56 AM 69.1 °F - 68.0 °F 96% 29.97 in 10.0 mi East 4.6 mph - N/A Rain Light Rain
1:10 AM 69.8 °F - 68.0 °F 94% 29.96 in 10.0 mi SSE 3.5 mph - N/A   Scattered Clouds
1:21 AM 68.0 °F - 68.0 °F 100% 29.95 in 10.0 mi Calm Calm - N/A Rain Light Rain
1:56 AM 68.0 °F - 68.0 °F 100% 29.95 in 10.0 mi ENE 3.5 mph - N/A   Clear
2:04 AM 68.0 °F - 68.0 °F 100% 29.94 in 10.0 mi Calm Calm - N/A   Scattered Clouds
2:13 AM 68.0 °F - 68.0 °F 100% 29.94 in 9.0 mi Calm Calm - N/A   Mostly Cloudy
2:56 AM 68.0 °F - 68.0 °F 100% 29.96 in 5.0 mi Calm Calm - N/A   Overcast
3:15 AM 68.0 °F - 68.0 °F 100% 29.95 in 2.0 mi Calm Calm - N/A   Overcast
3:24 AM 68.0 °F - 68.0 °F 100% 29.95 in 1.2 mi Calm Calm - N/A   Overcast
3:32 AM 68.0 °F - 68.0 °F 100% 29.95 in 0.8 mi Calm Calm - N/A   Overcast
3:45 AM 68.0 °F - 68.0 °F 100% 29.95 in 0.5 mi Calm Calm - N/A Fog Fog
3:54 AM 68.0 °F - 68.0 °F 100% 29.95 in 0.8 mi West 3.5 mph - N/A   Overcast
3:56 AM 68.0 °F - 68.0 °F 100% 29.96 in 0.5 mi West 3.5 mph - N/A Fog Fog
4:15 AM 68.0 °F - 68.0 °F 100% 29.95 in 0.2 mi Calm Calm - N/A Fog , Rain Light Rain
4:56 AM 69.1 °F - 69.1 °F 100% 29.97 in 0.5 mi West 3.5 mph - N/A Fog , Rain Light Rain
5:07 AM 69.8 °F - 69.8 °F 100% 29.96 in 1.0 mi Calm Calm - N/A Rain Light Rain
5:16 AM 69.8 °F - 69.8 °F 100% 29.96 in 1.5 mi Calm Calm - N/A   Overcast
5:34 AM 69.8 °F - 69.8 °F 100% 29.96 in 1.0 mi West 3.5 mph - N/A Rain Light Rain
5:42 AM 69.8 °F - 69.8 °F 100% 29.97 in 1.2 mi WNW 3.5 mph - N/A   Overcast
5:56 AM 69.1 °F - 69.1 °F 100% 29.98 in 2.0 mi West 3.5 mph - N/A   Overcast
6:03 AM 69.8 °F - 69.8 °F 100% 29.98 in 5.0 mi WSW 3.5 mph - N/A   Overcast
6:14 AM 69.8 °F - 69.8 °F 100% 29.97 in 1.8 mi Calm Calm - N/A   Overcast
6:31 AM 69.8 °F - 69.8 °F 100% 29.97 in 0.8 mi West 3.5 mph - N/A   Overcast
6:56 AM 69.1 °F - 69.1 °F 100% 29.97 in 0.8 mi WSW 3.5 mph - N/A   Overcast
7:08 AM 69.8 °F - 69.8 °F 100% 29.96 in 1.2 mi SW 3.5 mph - N/A   Overcast
7:14 AM 69.8 °F - 69.8 °F 100% 29.96 in 3.0 mi WSW 3.5 mph - N/A   Overcast
7:56 AM 70.0 °F - 69.1 °F 97% 29.97 in 10.0 mi SW 6.9 mph - N/A   Overcast
8:46 AM 73.4 °F - 69.8 °F 88% 29.96 in 10.0 mi WSW 8.1 mph - N/A   Mostly Cloudy
8:56 AM 73.0 °F - 70.0 °F 90% 29.97 in 10.0 mi WSW 8.1 mph - N/A   Mostly Cloudy
9:19 AM 73.4 °F - 69.8 °F 88% 29.95 in 10.0 mi WSW 6.9 mph - N/A   Scattered Clouds
9:56 AM 78.1 °F - 71.1 °F 79% 29.95 in 10.0 mi WSW 4.6 mph - N/A   Clear
10:56 AM 82.0 °F 86.3 °F 71.1 °F 69% 29.96 in 10.0 mi WSW 8.1 mph - N/A   Clear
11:56 AM 82.0 °F 86.3 °F 71.1 °F 69% 29.94 in 10.0 mi SW 5.8 mph - N/A   Clear
12:56 PM 86.0 °F 92.2 °F 72.0 °F 63% 29.93 in 10.0 mi Variable 6.9 mph - N/A   Clear
1:56 PM 88.0 °F 95.6 °F 73.0 °F 61% 29.92 in 10.0 mi SW 8.1 mph - N/A   Clear
2:56 PM 89.1 °F 95.0 °F 71.1 °F 55% 29.88 in 10.0 mi SW 6.9 mph - N/A   Clear
3:56 PM 82.9 °F 88.8 °F 73.0 °F 72% 29.89 in 10.0 mi SW 4.6 mph - N/A Rain , Thunderstorm Light Thunderstorms and Rain
4:37 PM 82.4 °F 87.2 °F 71.6 °F 70% 29.89 in 10.0 mi SW 12.7 mph 18.4 mph N/A   Mostly Cloudy
4:56 PM 81.0 °F 84.4 °F 70.0 °F 69% 29.91 in 10.0 mi WSW 5.8 mph - N/A   Clear
5:56 PM 80.1 °F 83.6 °F 71.1 °F 74% 29.88 in 10.0 mi SW 8.1 mph - N/A   Clear
6:56 PM 78.1 °F - 73.0 °F 84% 29.89 in 10.0 mi Calm Calm - N/A   Clear
7:56 PM 75.0 °F - 73.0 °F 94% 29.91 in 10.0 mi Calm Calm - N/A   Clear
8:56 PM 73.9 °F - 72.0 °F 93% 29.93 in 10.0 mi SSW 4.6 mph - N/A   Clear
9:56 PM 73.0 °F - 71.1 °F 93% 29.94 in 10.0 mi South 3.5 mph - N/A   Clear
10:56 PM 75.0 °F - 66.9 °F 76% 29.94 in 10.0 mi West 9.2 mph - N/A   Clear
11:56 PM 72.0 °F - 66.0 °F 81% 29.96 in 10.0 mi West 9.2 mph - N/A   Clear